Regional Weather Roundup
Issued by NWS

Home | Current Version | Previous Version | Text Only | Print | Product List | Glossary Off
Versions: 1 2 3 4 5 6 7 8 9 10 11 12 13 14 15 16 17 18 19 20 21 22 23 24 25 26 27 28 29 30 31 32 33 34 35 36 37 38 39 40 41 42 43 44 45 46 47 48 49 50

000
ASUS44 KMEG 300600
RWRTN
TENNESSEE HOURLY STATE WEATHER ROUNDUP
NATIONAL WEATHER SERVICE MEMPHIS TN
100 AM CDT TUE SEP 30 2014

TNZ002-004-019-021-049-052-054-088>092-300700-
WEST TENNESSEE

CITY           SKY/WX    TMP DP  RH WIND       PRES   REMARKS
MEMPHIS INTL   CLEAR     68  58  70 CALM      29.93F
NWS MEMPHIS      N/A     63 N/A N/A MISG        N/A
JACKSON        CLEAR     61  59  93 CALM      29.94F FOG
DYERSBURG      CLEAR     63  50  63 CALM      29.95F
UNION CITY     CLEAR     57  57 100 CALM      29.94F
PARIS          CLEAR     57  54  88 CALM      29.96S
LEXINGTON      CLEAR     61  61 100 CALM      29.94S
SAVANNAH       CLEAR     57  57 100 CALM      29.95S
$$

TNZ008-025-027-028-033-062-065-066-300700-
NORTH MIDDLE TENNESSEE

CITY           SKY/WX    TMP DP  RH WIND       PRES   REMARKS
NASHVILLE      CLEAR     66  61  84 CALM      29.95F
CLARKSVILLE    CLEAR     62  58  86 CALM      29.95S
COOKEVILLE       N/A     55  55 100 CALM      29.96S VSB 1/4
CROSSVILLE     CLEAR     60  56  86 CALM      30.00S
$$

TNZ061-075-076-078-094-096-097-300700-
SOUTH MIDDLE TENNESSEE

CITY           SKY/WX    TMP DP  RH WIND       PRES   REMARKS
FAYETTEVILLE   CLEAR     61  57  88 MISG      29.96S
TULLAHOMA      CLEAR     57  54  88 CALM      29.97S
WINCHESTER     CLEAR     55  55 100 CALM      29.97S
COLUMBIA       CLEAR    N/A N/A N/A CALM      29.94F
SHELBYVILLE    CLEAR     61  61 100 E5        29.96S
$$

TNZ017-018-042-046-047-300700-
NORTHEAST TENNESSEE

CITY           SKY/WX    TMP DP  RH WIND       PRES   REMARKS
TRI CITIES     MOCLDY    58  56  93 CALM      29.99S FOG
ELIZABETHTON   PTCLDY    57  55  94 CALM      30.00S
$$

TNZ012-013-036-069-073-074-300700-
CENTRAL EAST TENNESSEE

CITY           SKY/WX    TMP DP  RH WIND       PRES   REMARKS
KNOXVILLE      CLEAR     63  60  90 CALM      29.96R
OAK RIDGE      PTCLDY    63  61  93 CALM      29.98S
GATLINBURG     CLEAR     57  55  94 CALM      29.96S
$$

TNZ083-085-099-300700-
SOUTHEAST TENNESSEE

CITY           SKY/WX    TMP DP  RH WIND       PRES   REMARKS
CHATTANOOGA    CLEAR     64  62  93 CALM      29.96F
$$

SKY/WX REPORTED AS FAIR MEANS FEW OR NO CLOUDS BELOW
12 THOUSAND FEET.



USA.gov is the U.S. government's official web portal to all federal, state and local government web resources and services.